Regional Weather Roundup
Issued by NWS State College, PA

Home | Current Version | Previous Version | Text Only | Print | Product List | Glossary On
Versions: 1 2 3 4 5 6 7 8 9 10 11 12 13 14 15 16 17 18 19 20 21 22 23 24 25 26 27 28 29 30 31 32 33 34 35 36 37 38 39 40 41 42 43 44 45 46 47 48 49 50
000
ASUS41 KCTP 281610
RWRCTP

REGIONAL WEATHER ROUNDUP
NATIONAL WEATHER SERVICE STATE COLLEGE PA
1200 PM EDT SAT MAY 28 2016

Note: "fair" indicates few or no clouds below 12,000 feet with no
significant weather and/or obstructions to visibility.

* = STATION THAT DOES NOT REPORT PRECIPITATION /E.G. RAIN...SNOW...ETC/
    THUNDER OR FOG.

PAZ002>004-007>009-013>016-020>023-029>032-281700-
WESTERN PENNSYLVANIA

CITY           SKY/WX    TMP DP  RH WIND       PRES   REMARKS
ERIE           SUNNY     88  66  48 VRB7      30.10S
MEADVILLE      MOSUNNY   82  64  54 VRB7      30.15S
FRANKLIN*      PTSUNNY   82  64  54 S8        30.18S
NEW CASTLE     FAIR      84  68  58 CALM      30.15R
BEAVER COUNTY  SUNNY     82  66  57 SW5       30.16R
BUTLER*        MOSUNNY   82  66  57 SW6       30.19S
PITTSBURGH INT PTSUNNY   83  62  49 S8        30.15S
PITTSBURGH     SUNNY     81  65  58 VRB5      30.16S
INDIANA*       SUNNY     82  68  61 SW5G12    30.21S
LATROBE        SUNNY     81  68  65 SW9       30.18S
WASHINGTON CO* SUNNY     81  66  61 W6        30.17S
$$

PAZ004>006-010>012-017>019-024>028-033>037-041-042-045-046-049>053-281700-
CENTRAL PENNSYLVANIA

CITY           SKY/WX    TMP DP  RH WIND       PRES   REMARKS
BRADFORD       PTSUNNY   81  61  50 NW7       30.20R
DUBOIS         SUNNY     80  63  55 W3        30.18S
CLEARFIELD     SUNNY     84  63  49 VRB3      30.18S
JOHNSTOWN      SUNNY     80  61  52 VRB5      30.22R
ALTOONA        SUNNY     83  63  50 CALM      30.19S
STATE COLLEGE  MOSUNNY   82  68  61 CALM      30.16S
WILLIAMSPORT   SUNNY     84  68  58 SE6       30.12F
SELINSGROVE    SUNNY     85  67  54 VRB5      30.14S
FT INDIANTOWN  SUNNY     82  68  62 S5        30.14F
CAPITAL CITY   SUNNY     85  70  60 E7        30.14S
HARRISBURG     MOSUNNY   84  68  58 SE6       30.13F
YORK           SUNNY     83  69  62 SW5       30.15S
$$

PAZ038>040-043-044-047-048-054-055-060>062-067>071-281700-
EASTERN PENNSYLVANIA

CITY           SKY/WX    TMP DP  RH WIND       PRES   REMARKS
SCRANTON       SUNNY     87  66  49 VRB3      30.14S
MOUNT POCONO   SUNNY     83  60  45 W7        30.19F
ALLENTOWN      SUNNY     83  68  60 SW5       30.14S
QUAKERTOWN*    SUNNY     86  68  54 S3        30.16F
READING        SUNNY     87  68  52 VRB5      30.13S
LANCASTER      SUNNY     84  69  60 MISG      30.14F
COATESVILLE    SUNNY     82  68  61 VRB6      30.18S
POTTSTOWN      SUNNY     83  69  62 MISG      30.16S
BLUE BELL      SUNNY     82  70  65 S3        30.15S
DOYLESTOWN     SUNNY     82  67  60 S8        30.14F
WILLOW GROVE   NOT AVBL
NORTH PHILA    SUNNY     84  67  56 SW7       30.16F
PHILADELPHIA   SUNNY     83  65  54 SW7       30.16S
$$




USA.gov is the U.S. government's official web portal to all federal, state and local government web resources and services.